Location: Gandikunta
(16.3784°N, 80.8378°E)
Time: 01:12:07
(UTC+00:00)

Cosmos 1745 Rocket - Pass Details

Date: 19 May 2025
Orbit: 953 x 996 km, 83.0° (Epoch: 18 June)

Event Time Altitude Azimuth Distance (km) Brightness Sun altitude
Rises 13:23:27 0° 7° (N) 3,676 7.2 -5.8°
Reaches altitude 10° 13:26:06 10° 14° (NNE) 2,733 6.5 -6.3°
Maximum altitude 13:32:00 43° 84° (E) 1,358 4.4 -7.6°
Drops below altitude 10° 13:37:56 10° 154° (SSE) 2,750 5.9 -8.9°
Sets 13:40:36 0° 161° (SSE) 3,700 6.6 -9.5°
